Flag for U.S.A. Weather past 2 weeks in Bowling Green, Kentucky, U.S.A.

Now
40 °F

Light rain. Overcast.


Feels Like: 40 °F
Forecast: 33 / 48 °F
Wind: No wind

Location: Glasgow Municipal Airport

Current Time: Mar 1, 2015 at 9:55:49 AM

Latest Report: Mar 1, 2015 at 9:15 AM


Visibility: 10 mi

Pressure: 30.38 "Hg

Humidity: 83%

Dew point: 35 °F

Location of Bowling GreenLocation

Historic Weather in Bowling Green — Graph

°F

Bowling Green temperature yesterday

Maximum temperature yesterday: 39 °F (at 2:15 PM)
Minimum temperature yesterday: 21 °F (at 1:55 AM)
Average temperature yesterday: 30 °F

Past Weeks' High & Low Weather Summary

 TemperatureHumidityPressure
High43 °F (Feb 21, 1:15 PM)100% (Feb 20, 10:15 PM)30.66 "Hg (Feb 20, 10:15 PM)
Low-13 °F (Feb 19, 5:55 AM)32% (Feb 20, 12:35 PM)29.81 "Hg (Feb 25, 6:35 PM)
Average23 °F67%30.23 "Hg
* Reported Feb 14 8:15 AM — Mar 1 8:55 AM, Bowling Green, Weather by CustomWeather, © 2015

Note: Actual official high and low records may vary slightly from our data, if they occured in-between our weather recording intervals... More about our weather records

Advertising

Bowling Green weather history for previous 24 hours

 ConditionsComfort  
Time TempWeatherWind HumidityBarometerVisibility
8:55 AM
Sun, Mar 1
38 °FRain. Overcast.No wind85%30.39 "Hg10 mi
8:35 AM38 °FLight rain. Overcast.3 mph82%30.39 "Hg10 mi
8:15 AM39 °FOvercast.No wind78%30.38 "Hg10 mi
7:55 AM38 °FLight rain. Overcast.3 mph77%30.37 "Hg10 mi
7:35 AM37 °FOvercast.3 mph81%30.38 "Hg10 mi
7:15 AM37 °FOvercast.No wind81%30.38 "Hg10 mi
6:55 AM37 °FOvercast.No wind79%30.38 "Hg10 mi
6:35 AM36 °FLight rain. Overcast.No wind80%30.38 "Hg10 mi
6:15 AM37 °FOvercast.No wind76%30.38 "Hg10 mi
5:55 AM36 °FOvercast.No wind77%30.38 "Hg10 mi
5:35 AM37 °FOvercast.3 mph74%30.38 "Hg10 mi
5:15 AM36 °FOvercast.No wind76%30.37 "Hg10 mi
4:55 AM36 °FOvercast.No wind77%30.37 "Hg10 mi
4:35 AM36 °FOvercast.No wind77%30.38 "Hg10 mi
4:15 AM36 °FOvercast.No wind78%30.37 "Hg10 mi
3:55 AM36 °FDrizzle. Overcast.No wind74%30.38 "Hg10 mi
3:35 AM36 °FOvercast.No wind72%30.37 "Hg10 mi
3:15 AM36 °FMostly cloudy.No wind73%30.37 "Hg10 mi
2:55 AM36 °FMostly cloudy.No wind71%30.37 "Hg10 mi
2:35 AM36 °FOvercast.No wind71%30.38 "Hg10 mi
2:15 AM35 °FOvercast.3 mph72%30.37 "Hg10 mi
1:55 AM35 °FMostly cloudy.3 mph70%30.38 "Hg10 mi
1:35 AM34 °FMostly cloudy.3 mph71%30.39 "Hg10 mi
1:15 AM34 °FOvercast.3 mph72%30.39 "Hg10 mi
12:55 AM34 °FOvercast.5 mph71%30.39 "Hg10 mi
12:35 AM34 °FOvercast.3 mph69%30.40 "Hg10 mi
12:15 AM34 °FOvercast.3 mph70%30.40 "Hg10 mi
11:55 PM
Sat, Feb 28
34 °FOvercast.5 mph68%30.40 "Hg10 mi
11:15 PM34 °FOvercast.5 mph68%30.41 "Hg10 mi
10:55 PM35 °FOvercast.3 mph67%30.41 "Hg10 mi
10:35 PM35 °FOvercast.6 mph65%30.42 "Hg10 mi
10:15 PM35 °FOvercast.7 mph66%30.43 "Hg10 mi
9:55 PM35 °FOvercast.7 mph68%30.43 "Hg10 mi
9:15 PM34 °FPartly cloudy.6 mph68%30.41 "Hg10 mi
8:55 PM34 °FMostly cloudy.8 mph69%30.42 "Hg10 mi
8:35 PM35 °FOvercast.6 mph66%30.43 "Hg10 mi
8:15 PM35 °FOvercast.3 mph62%30.44 "Hg10 mi
7:55 PM36 °FMostly cloudy.No wind62%30.45 "Hg10 mi
7:35 PM36 °FMostly cloudy.No wind61%30.45 "Hg10 mi
7:15 PM36 °FPassing clouds.5 mph62%30.45 "Hg10 mi
6:55 PM36 °FPassing clouds.6 mph62%30.45 "Hg10 mi
6:35 PM35 °FPassing clouds.6 mph64%30.45 "Hg10 mi
6:15 PM36 °FOvercast.7 mph62%30.46 "Hg10 mi
5:50 PM36 °FOvercast.7 mph58%30.46 "Hg10 mi
5:35 PM36 °FPassing clouds.7 mph57%30.46 "Hg10 mi
5:15 PM36 °FClear.7 mph56%30.46 "Hg10 mi
4:55 PM36 °FClear.6 mph55%30.46 "Hg10 mi
4:35 PM37 °FSunny.3 mph55%30.48 "Hg10 mi
4:15 PM37 °FScattered clouds.6 mph55%30.47 "Hg10 mi
3:55 PM37 °FMostly cloudy.6 mph52%30.48 "Hg10 mi
3:15 PM37 °FScattered clouds.6 mph50%30.49 "Hg10 mi
2:55 PM37 °FScattered clouds.6 mph48%30.49 "Hg10 mi
2:35 PM38 °FSunny.6 mph45%30.50 "Hg10 mi
2:15 PM39 °FScattered clouds.8 mph46%30.50 "Hg10 mi
1:55 PM38 °FPartly sunny.9 mph46%30.51 "Hg10 mi
1:35 PM37 °FOvercast.7 mph47%30.52 "Hg10 mi
1:15 PM35 °FOvercast.7 mph48%30.54 "Hg10 mi
12:55 PM35 °FOvercast.8 mph49%30.54 "Hg10 mi
12:35 PM35 °FOvercast.7 mph49%30.56 "Hg10 mi
12:15 PM34 °FOvercast.5 mph47%30.57 "Hg10 mi
11:55 AM34 °FOvercast.6 mph50%30.58 "Hg10 mi
11:35 AM33 °FOvercast.7 mph51%30.59 "Hg10 mi
11:15 AM32 °FOvercast.9 mph52%30.59 "Hg10 mi
10:55 AM31 °FOvercast.8 mph51%30.61 "Hg10 mi
10:35 AM31 °FOvercast.6 mph53%30.62 "Hg10 mi
10:15 AM30 °FOvercast.8 mph53%30.63 "Hg10 mi
9:55 AM28 °FOvercast.6 mph53%30.64 "Hg10 mi
9:35 AM28 °FScattered clouds.8 mph56%30.63 "Hg10 mi
9:15 AM27 °FScattered clouds.9 mph55%30.63 "Hg10 mi
Weather by CustomWeather, © 2015

See weather overviewHow to use our weather pages